Tracking 21606 objects as of 24-Oct-2020
HD Live streaming from Space Station
objects crossing your sky now

COSMOS 2022 (GLONASS)

Track COSMOS 2022 (GLONASS) now!
COSMOS 2022 (GLONASS) is classified as:


NORAD ID: 20024
Int'l Code: 1989-039A
Perigee: 19,115.4 km
Apogee: 19,158.7 km
Inclination: 65.5 °
Period: 675.7 minutes
Semi major axis: 25508 km
RCS: 4.9605 m2 (large)
Launch date: May 31, 1989
Source: Commonwealth of Independent States (former USSR) (CIS)
Launch site: TYURATAM MISSILE AND SPACE COMPLEX (TTMTR)
aabbcc
Your satellite tracking list
Your tracking list is empty




NASA's NSSDC Master Catalog

Two Line Element Set (TLE):
1 20024U 89039A   20293.38561984 -.00000069 +00000-0 +00000-0 0  9993
2 20024 065.5031 021.2135 0008490 215.3748 198.1815 02.13101986244289
Source of the keplerian elements: AFSPC